Stündliche Wetter Bern

Heute, 21 April, Mittwoch

Zeit Temperatur Niederschläge Wind Luftdruck Luftfeuchtigkeit
00:00 +5°C° 0 mm 1 m/S 713 mmHg 87%
01:00 +4°C° 0 mm 1 m/S 713 mmHg 87%
02:00 +4°C° 0 mm 1 m/S 713 mmHg 87%
03:00 +4°C° 0 mm 1 m/S 713 mmHg 88%
04:00 +5°C° 0 mm 1 m/S 714 mmHg 86%
05:00 +6°C° 0 mm 1 m/S 714 mmHg 83%
06:00 +5°C° 0 mm 0 m/S 714 mmHg 81%
07:00 +9°C° 0 mm 1 m/S 714 mmHg 75%
08:00 +11°C° 0 mm 1 m/S 714 mmHg 69%
09:00 +13°C° 0 mm 1 m/S 714 mmHg 63%
10:00 +14°C° 0.2 mm 1 m/S 713 mmHg 61%
11:00 +14°C° 0.2 mm 1 m/S 713 mmHg 59%
12:00 +15°C° 0.2 mm 1 m/S 713 mmHg 58%
13:00 +15°C° 0.3 mm 1 m/S 713 mmHg 61%
14:00 +14°C° 0.3 mm 1 m/S 713 mmHg 64%
15:00 +14°C° 0.3 mm 1 m/S 713 mmHg 67%
16:00 +13°C° 0.5 mm 1 m/S 713 mmHg 74%
17:00 +11°C° 0.5 mm 1 m/S 713 mmHg 80%
18:00 +9°C° 0.5 mm 0 m/S 713 mmHg 87%
19:00 +9°C° 0.2 mm 1 m/S 713 mmHg 89%
20:00 +8°C° 0.2 mm 1 m/S 714 mmHg 91%
21:00 +7°C° 0.2 mm 1 m/S 714 mmHg 93%
22:00 +7°C° 0.1 mm 1 m/S 715 mmHg 93%
23:00 +7°C° 0.1 mm 1 m/S 715 mmHg 92%

Morgen, 22 April, Donnerstag

Zeit Temperatur Niederschläge Wind Luftdruck Luftfeuchtigkeit
00:00 +7°C° 0.1 mm 1 m/S 715 mmHg 92%
01:00 +7°C° 0 mm 1 m/S 715 mmHg 92%
02:00 +6°C° 0 mm 0 m/S 715 mmHg 92%
03:00 +6°C° 0 mm 0 m/S 715 mmHg 92%
04:00 +7°C° 0 mm 0 m/S 715 mmHg 92%
05:00 +7°C° 0 mm 0 m/S 715 mmHg 91%
06:00 +8°C° 0 mm 0 m/S 716 mmHg 91%
07:00 +10°C° 0 mm 1 m/S 716 mmHg 88%
08:00 +11°C° 0 mm 1 m/S 716 mmHg 84%
09:00 +12°C° 0 mm 1 m/S 716 mmHg 81%
10:00 +13°C° 0.2 mm 2 m/S 716 mmHg 76%
11:00 +13°C° 0.2 mm 2 m/S 716 mmHg 71%
12:00 +13°C° 0.2 mm 3 m/S 716 mmHg 66%
13:00 +13°C° 0.2 mm 3 m/S 716 mmHg 69%
14:00 +13°C° 0.2 mm 3 m/S 716 mmHg 72%
15:00 +12°C° 0.2 mm 3 m/S 716 mmHg 75%
16:00 +11°C° 0.1 mm 3 m/S 716 mmHg 80%
17:00 +10°C° 0.1 mm 3 m/S 717 mmHg 85%
18:00 +9°C° 0.1 mm 3 m/S 717 mmHg 90%
19:00 +8°C° 0 mm 2 m/S 717 mmHg 91%
20:00 +7°C° 0 mm 2 m/S 718 mmHg 92%
21:00 +6°C° 0 mm 2 m/S 718 mmHg 93%
22:00 +6°C° 0 mm 2 m/S 718 mmHg 93%
23:00 +5°C° 0 mm 2 m/S 718 mmHg 93%

übermorgen, 23 April, Freitag

Zeit Temperatur Niederschläge Wind Luftdruck Luftfeuchtigkeit
00:00 +5°C° 0 mm 2 m/S 718 mmHg 93%
01:00 +4°C° 0 mm 2 m/S 718 mmHg 91%
02:00 +3°C° 0 mm 2 m/S 718 mmHg 90%
03:00 +3°C° 0 mm 2 m/S 719 mmHg 89%
04:00 +3°C° 0 mm 2 m/S 719 mmHg 87%
05:00 +4°C° 0 mm 2 m/S 719 mmHg 84%
06:00 +4°C° 0 mm 2 m/S 719 mmHg 81%
07:00 +5°C° 0 mm 3 m/S 719 mmHg 73%
08:00 +7°C° 0 mm 4 m/S 719 mmHg 64%
09:00 +10°C° 0 mm 4 m/S 719 mmHg 56%
10:00 +11°C° 0 mm 4 m/S 719 mmHg 51%
11:00 +13°C° 0 mm 5 m/S 719 mmHg 45%
12:00 +14°C° 0 mm 5 m/S 719 mmHg 40%
13:00 +14°C° 0 mm 5 m/S 718 mmHg 41%
14:00 +14°C° 0 mm 5 m/S 718 mmHg 41%
15:00 +14°C° 0 mm 5 m/S 718 mmHg 42%
16:00 +13°C° 0 mm 4 m/S 718 mmHg 49%
17:00 +11°C° 0 mm 4 m/S 719 mmHg 55%
18:00 +10°C° 0 mm 4 m/S 719 mmHg 62%
19:00 +7°C° 0 mm 4 m/S 719 mmHg 68%
20:00 +7°C° 0 mm 3 m/S 719 mmHg 73%
21:00 +5°C° 0 mm 3 m/S 719 mmHg 78%
22:00 +4°C° 0 mm 3 m/S 719 mmHg 81%
23:00 +4°C° 0 mm 2 m/S 719 mmHg 84%

24 April, Samstag

Zeit Temperatur Niederschläge Wind Luftdruck Luftfeuchtigkeit
00:00 +4°C° 0 mm 2 m/S 719 mmHg 87%
01:00 +3°C° 0 mm 2 m/S 719 mmHg 87%
02:00 +3°C° 0 mm 2 m/S 719 mmHg 88%
03:00 +3°C° 0 mm 1 m/S 719 mmHg 89%
04:00 +4°C° 0 mm 1 m/S 719 mmHg 85%
05:00 +5°C° 0 mm 1 m/S 719 mmHg 81%
06:00 +6°C° 0 mm 1 m/S 719 mmHg 77%
07:00 +7°C° 0 mm 2 m/S 719 mmHg 69%
08:00 +9°C° 0 mm 2 m/S 719 mmHg 61%
09:00 +12°C° 0 mm 3 m/S 719 mmHg 53%
10:00 +13°C° 0 mm 3 m/S 719 mmHg 48%
11:00 +14°C° 0 mm 3 m/S 718 mmHg 44%
12:00 +17°C° 0 mm 3 m/S 718 mmHg 40%
13:00 +17°C° 0 mm 3 m/S 718 mmHg 40%
14:00 +17°C° 0 mm 3 m/S 717 mmHg 40%
15:00 +17°C° 0 mm 3 m/S 717 mmHg 40%
16:00 +14°C° 0 mm 3 m/S 717 mmHg 50%
17:00 +13°C° 0 mm 2 m/S 718 mmHg 60%
18:00 +10°C° 0 mm 2 m/S 718 mmHg 71%
19:00 +9°C° 0 mm 2 m/S 718 mmHg 75%
20:00 +8°C° 0 mm 1 m/S 718 mmHg 80%
21:00 +7°C° 0 mm 1 m/S 719 mmHg 85%
22:00 +7°C° 0 mm 1 m/S 719 mmHg 86%
23:00 +5°C° 0 mm 2 m/S 718 mmHg 88%

25 April, Sonntag

Zeit Temperatur Niederschläge Wind Luftdruck Luftfeuchtigkeit
00:00 +5°C° 0 mm 2 m/S 718 mmHg 89%
01:00 +4°C° 0 mm 2 m/S 718 mmHg 89%
02:00 +4°C° 0 mm 2 m/S 718 mmHg 89%
03:00 +3°C° 0 mm 2 m/S 718 mmHg 89%
04:00 +4°C° 0 mm 2 m/S 718 mmHg 85%
05:00 +5°C° 0 mm 2 m/S 718 mmHg 82%
06:00 +6°C° 0 mm 2 m/S 718 mmHg 78%
07:00 +8°C° 0 mm 3 m/S 718 mmHg 70%
08:00 +9°C° 0 mm 3 m/S 718 mmHg 62%
09:00 +11°C° 0 mm 4 m/S 718 mmHg 54%
10:00 +13°C° 0 mm 4 m/S 717 mmHg 50%
11:00 +14°C° 0 mm 4 m/S 717 mmHg 45%
12:00 +15°C° 0 mm 4 m/S 717 mmHg 41%
13:00 +15°C° 0 mm 4 m/S 717 mmHg 41%
14:00 +15°C° 0 mm 4 m/S 717 mmHg 41%
15:00 +17°C° 0 mm 4 m/S 717 mmHg 41%
16:00 +14°C° 0 mm 4 m/S 717 mmHg 48%
17:00 +12°C° 0 mm 4 m/S 717 mmHg 54%
18:00 +10°C° 0 mm 4 m/S 717 mmHg 61%
19:00 +9°C° 0 mm 3 m/S 717 mmHg 66%
20:00 +7°C° 0 mm 3 m/S 717 mmHg 72%
21:00 +5°C° 0 mm 3 m/S 717 mmHg 78%
22:00 +4°C° 0 mm 3 m/S 717 mmHg 79%
23:00 +4°C° 0 mm 2 m/S 717 mmHg 80%

26 April, Montag

Zeit Temperatur Niederschläge Wind Luftdruck Luftfeuchtigkeit
00:00 +4°C° 0 mm 2 m/S 717 mmHg 81%
01:00 +3°C° 0 mm 2 m/S 716 mmHg 81%
02:00 +3°C° 0 mm 2 m/S 716 mmHg 82%
03:00 +2°C° 0 mm 2 m/S 716 mmHg 82%
04:00 +3°C° 0 mm 2 m/S 716 mmHg 78%
05:00 +4°C° 0 mm 2 m/S 716 mmHg 74%
06:00 +5°C° 0 mm 2 m/S 716 mmHg 70%
07:00 +7°C° 0 mm 2 m/S 716 mmHg 63%
08:00 +10°C° 0 mm 2 m/S 716 mmHg 55%
09:00 +13°C° 0 mm 2 m/S 715 mmHg 48%
10:00 +14°C° 0 mm 3 m/S 715 mmHg 45%
11:00 +16°C° 0 mm 3 m/S 715 mmHg 41%
12:00 +17°C° 0 mm 3 m/S 714 mmHg 38%
13:00 +17°C° 0 mm 3 m/S 714 mmHg 38%
14:00 +18°C° 0 mm 3 m/S 714 mmHg 38%
15:00 +18°C° 0 mm 3 m/S 713 mmHg 37%
16:00 +16°C° 0 mm 3 m/S 713 mmHg 45%
17:00 +14°C° 0 mm 2 m/S 713 mmHg 53%
18:00 +12°C° 0 mm 2 m/S 713 mmHg 61%
19:00 +10°C° 0 mm 2 m/S 713 mmHg 66%
20:00 +9°C° 0 mm 1 m/S 713 mmHg 70%
21:00 +8°C° 0 mm 1 m/S 713 mmHg 75%
22:00 +7°C° 0 mm 1 m/S 713 mmHg 76%
23:00 +7°C° 0 mm 1 m/S 713 mmHg 77%
Mehr zeigen

Wir brauchen deine Erlaubnis

Meteoprog und unser Service Anbieter werden persönliche Daten aufbewahren, so wie Cookies, Geräte Bezeichnung oder ähnliche Technologien von deinem Gerät und Prozess, so wie Persönliche Daten Inhalte und Werbungen, genauso wie social Media und den Verkehr zu analysieren.

  • Aufbewahrung und/oder Zugang zu deiner Geräte Informationen.

    Cookies, Geräte Bezeichnung oder andere Informationen, können aufbewahrt oder Zugang zu deinem Gerät erhalten, für den Grund, der oben angegeben wird.

  • Personalisierte Werbung und Inhalte, Messungen, Einblick in das Publikum und Produkt Entwicklung.

    Werbungen und Inhalte können personalisiert werden, basierend auf ein Profil. Mehr Daten können besser personalisierte Werbungen und Inhalte hinzufügen. Werbung und Inhalte können gezeigt und gemessen werden. Einblicke über das Publikum, welche die Werbung gesehen haben und den Inhalt, können abgeleitet werden. So wie Daten können genutzt werden, um es zu verbessern oder die Benutzer Erfahrung zu verbessern das System und die Software.

Wenn du “Ich stimme zu” klickst, erlaubst du uns, die Cookies zu benutzen die Geräte Bezeichnung, den Web oder ähnliche Technologien zu benutzen. Deine Settings, können in deinem Gerät bei deinem Browser geändert werden.

Für den bestimmten Zweck, berechtigten Interessen beruhen darauf, mehr als auf den Inhalt. Du kannst mehr darüber in unseren Privaten und Cookie Politik lesen.